Probability
0 0 0 0 0 0 0 0 0 0 0 0 0 0 0 0 0 0 0 0 0 0 0 0 0 0 0 0 0 0 0 0 0 0 0 0 0 0 0 0 0 0 0 0 0 0 0 0 0
0 0 0 0 0 0 0 0 0 0 0 0 0 0 0 0 0 0 0 0 0 0 0 0 0 0 0 0 0 0 0 0 0 0 0 0 0 0 0 0 0 0 0 0 0 0 0 0 0
0 0 0 0 0 0 0 0 0 0 0 0 0 0 0 0 0 0 0 0 0 0 0 0 0 1 1 1 0 0 0 0 0 0 0 0 0 0 0 0 0 0 0 0 0 0 0 0 0
0 0 0 0 0 0 0 0 0 0 0 0 0 0 0 0 0 0 0 0 0 0 0 2 5 10 10 5 0 0 0 0 0 0 0 0 0 0 0 1 1 0 0 0 0 0 0 0 0
0 0 0 0 0 0 0 0 0 0 0 0 0 0 0 0 0 0 0 0 5 14 17 17 21 31 33 18 4 0 0 0 1 0 0 0 0 0 1 2 2 0 0 0 0 0 0 0 0
0 0 0 0 0 0 0 0 0 0 0 0 0 0 0 0 0 0 0 0 13 37 47 39 36 50 55 36 12 3 2 2 1 1 1 0 0 0 1 2 2 0 0 0 0 1 1 1 0
0 0 0 0 0 0 0 0 0 0 0 0 0 0 0 0 0 0 0 0 12 36 51 42 33 41 46 33 14 5 4 2 2 2 2 1 1 1 2 3 2 1 0 0 1 2 2 1 1
0 0 0 0 0 0 0 0 0 0 0 0 0 0 0 0 0 0 0 0 4 15 24 21 15 17 18 13 6 3 2 1 1 2 3 2 1 1 3 4 3 1 0 0 0 1 1 1 0
0 0 0 0 0 0 0 0 0 0 0 0 0 0 0 0 0 0 0 0 0 2 4 4 3 3 2 1 0 0 0 0 0 1 2 2 1 1 2 3 2 2 3 3 1 0 0 0 0
0 0 0 0 0 0 0 0 0 0 0 0 0 0 0 0 0 0 0 0 0 0 0 0 0 0 0 0 0 0 0 0 0 0 0 1 1 0 1 1 0 2 6 6 4 3 3 2 1
0 0 0 0 0 0 0 0 0 0 0 0 0 0 0 0 0 0 0 0 0 0 0 0 0 0 0 1 3 2 0 0 0 0 0 0 0 0 0 0 0 2 4 5 5 5 5 3 1
0 0 0 0 0 0 0 0 0 0 0 0 0 0 0 0 0 0 0 0 0 0 0 0 0 0 0 2 5 3 1 0 0 0 0 0 0 0 0 0 0 0 1 1 2 3 3 2 1
0 0 0 0 0 0 0 0 0 0 0 0 0 0 0 0 0 0 0 0 0 0 0 0 0 0 0 1 3 2 1 1 0 0 0 0 0 0 0 0 0 0 0 0 0 0 0 0 0
0 0 0 0 0 0 0 0 0 0 0 0 0 0 0 0 0 0 0 0 0 0 0 0 0 0 0 0 0 0 0 0 0 0 0 0 0 0 0 0 0 0 0 0 0 0 0 0 0
0 0 0 0 0 0 0 0 0 0 0 0 0 0 0 0 0 0 0 0 0 0 0 0 0 0 0 0 0 0 0 0 0 0 0 0 0 0 0 0 0 0 0 0 0 0 0 0 0
0 0 0 0 0 0 0 0 0 0 0 0 0 0 0 0 0 0 0 0 0 0 0 0 0 0 0 0 0 0 0 0 0 0 0 0 0 0 0 0 0 0 0 0 0 0 0 0 0
0 0 0 0 0 0 0 0 0 0 0 0 0 0 0 0 0 0 0 0 0 0 0 0 0 0 0 0 0 0 0 0 0 0 0 0 0 0 0 0 0 0 0 0 0 0 0 0 0
0 0 0 0 0 0 0 0 0 0 0 0 0 0 0 0 0 0 0 0 0 0 0 0 0 0 0 0 0 0 0 0 0 0 0 0 0 0 0 0 0 0 0 0 0 0 0 0 0
0 0 0 0 0 0 0 0 0 0 0 0 0 0 0 0 0 0 0 0 0 0 0 0 0 0 0 0 0 0 0 0 0 0 0 0 0 0 0 0 0 0 0 0 0 0 0 0 0
0 0 0 0 0 0 0 0 0 0 0 0 0 0 0 0 0 0 0 0 0 0 0 0 0 0 0 0 0 0 0 0 0 0 0 0 0 0 0 0 0 0 0 0 0 0 0 0 0
0 0 0 0 0 0 0 0 0 0 0 0 0 0 0 0 0 0 0 0 0 0 0 0 0 0 0 0 0 0 0 0 0 0 0 0 0 0 0 0 0 0 0 0 0 0 0 0 0
0 0 0 0 0 0 0 0 0 0 0 0 0 0 0 0 0 0 0 0 0 0 0 0 0 0 0 0 0 0 0 0 0 0 0 0 0 0 0 0 0 0 0 0 0 0 0 0 0
0 0 0 0 0 0 0 0 0 0 0 0 0 0 0 0 0 0 0 0 0 0 0 0 0 0 0 0 0 0 0 0 0 0 0 0 0 0 0 0 0 0 0 0 0 0 0 0 0
0 0 0 0 0 0 0 0 0 0 0 0 0 0 0 0 0 0 0 0 0 0 0 0 0 0 0 0 0 0 0 0 0 0 0 0 0 0 0 0 0 0 0 0 0 0 0 0 0
0 0 0 0 0 0 0 0 0 0 0 0 0 0 0 0 0 0 0 0 0 0 0 0 0 0 0 0 0 0 0 0 0 0 0 0 0 0 0 0 0 0 0 0 0 0 0 0 0
0 0 0 0 0 0 0 0 0 0 0 0 0 0 0 0 0 0 0 0 0 0 0 0 0 0 0 0 0 0 0 0 0 0 0 0 0 0 0 0 0 0 0 0 0 0 0 0 0
0 0 0 0 0 0 0 0 0 0 0 0 0 0 0 0 0 0 0 0 0 0 0 0 0 0 0 0 0 0 0 0 0 0 0 0 0 0 0 0 0 0 0 0 0 0 0 0 0
0 0 0 0 0 0 0 0 0 0 0 0 0 0 0 0 0 0 0 0 0 0 0 0 0 0 0 0 0 0 0 0 0 0 0 0 0 0 0 0 0 0 0 0 0 0 0 0 0
0 0 0 0 0 0 0 0 0 0 0 0 0 0 0 0 0 0 0 0 0 0 0 0 0 0 0 0 0 0 0 0 0 0 0 0 0 0 0 0 0 0 0 0 0 0 0 0 0
0 0 0 0 0 0 0 0 0 0 0 0 0 0 0 0 0 0 0 0 0 0 0 0 0 0 0 0 0 0 0 0 0 0 0 0 0 0 0 0 0 0 0 0 0 0 0 0 0
Wind_Speed
8 6 3 5 6 5 4 5 3 1 2 3 3 8 7 4 3 3 4 3 7 8 8 10 14 14 13 12 10 9 9 8 7 7 6 5 5 4 4 6 7 8 8 7 6 5 5 5 4
3 4 5 5 6 4 3 5 3 4 1 3 5 7 6 3 1 4 2 6 9 10 9 9 14 14 13 12 10 10 10 9 8 8 6 5 4 4 2 3 6 8 8 8 7 5 4 5 4
4 3 5 5 3 2 1 2 3 4 4 4 5 5 5 2 1 2 3 7 8 8 9 11 15 14 13 12 11 10 10 9 8 7 7 7 5 4 3 3 4 5 7 7 6 5 5 5 5
4 5 5 6 3 4 2 1 4 6 8 7 4 5 4 2 2 2 1 5 7 6 6 7 13 12 10 10 10 10 10 10 9 7 7 8 7 6 4 4 4 4 4 5 6 5 5 5 5
5 5 6 5 4 5 4 3 8 8 7 7 4 4 3 5 4 5 4 3 5 3 3 4 8 8 8 8 9 9 9 9 9 8 8 8 8 7 6 6 5 4 3 3 4 5 5 6 6
5 5 6 3 6 6 5 5 6 7 6 6 4 3 3 5 5 6 6 5 6 6 4 3 6 6 7 7 7 8 9 9 8 8 8 7 8 8 8 7 6 4 4 4 4 4 5 6 7
4 4 2 3 3 5 9 5 6 5 7 7 4 4 4 5 4 2 4 6 6 5 4 2 1 3 5 6 6 7 7 7 7 8 8 7 7 9 9 8 7 7 7 6 4 3 4 5 6
5 5 3 3 3 3 8 5 4 5 5 7 8 7 6 8 8 4 4 6 7 7 6 3 2 1 2 4 6 6 6 7 7 8 7 7 6 7 8 6 7 8 8 8 7 5 5 5 6
5 6 3 3 3 2 4 6 9 4 8 11 13 11 9 13 14 13 10 8 7 8 6 5 4 3 3 4 6 7 7 8 8 6 7 6 4 4 5 6 9 10 10 9 9 9 8 7 6
5 3 1 2 1 2 2 5 6 8 13 9 9 14 15 20 22 21 18 14 10 9 8 6 6 5 5 3 2 2 3 4 5 4 5 4 4 4 6 8 12 12 13 12 12 12 10 8 4
4 4 3 2 2 2 3 7 9 9 12 8 8 11 18 24 23 21 19 15 12 10 11 10 8 7 7 4 3 2 3 3 4 5 5 4 4 4 5 3 5 7 9 6 6 7 5 5 4
3 3 2 1 2 2 4 7 11 14 8 6 10 14 20 23 20 18 17 17 15 15 17 15 13 12 9 6 4 3 3 3 3 3 4 3 3 3 3 3 4 3 3 4 4 3 5 6 7
2 2 2 2 3 6 10 10 13 10 8 9 17 22 22 20 15 13 14 16 17 18 18 16 16 16 13 10 7 5 4 4 3 3 3 3 2 3 3 3 3 3 3 3 3 4 5 6 7
2 3 4 2 4 5 11 8 9 7 6 15 20 19 17 17 15 16 18 19 17 15 15 15 15 16 14 12 11 9 8 6 5 4 5 4 3 3 3 3 3 3 3 4 4 5 4 4 5
2 4 6 3 6 5 11 11 8 5 10 18 14 13 15 13 14 13 11 12 12 12 14 16 14 16 15 14 13 10 9 10 8 6 5 4 3 3 3 3 3 4 4 4 4 5 3 3 4
5 6 5 5 3 4 10 7 6 3 15 15 10 9 11 10 10 9 9 9 10 11 13 14 14 15 14 12 12 10 10 10 9 9 8 7 5 4 3 3 4 4 4 4 4 5 4 4 3
8 5 4 6 6 4 8 8 5 4 15 12 9 8 9 10 11 10 9 8 8 8 9 11 11 12 11 10 9 9 10 10 10 10 10 11 9 5 3 3 4 5 4 4 5 5 4 4 4
3 2 3 4 5 6 9 9 7 6 13 9 8 9 10 13 12 10 10 9 8 8 8 8 9 10 10 8 8 7 9 10 10 10 13 17 12 9 4 4 5 4 4 4 4 5 4 4 3
2 1 3 3 3 5 11 11 6 4 8 9 9 10 11 11 11 12 11 10 10 11 10 10 10 10 8 6 7 7 8 9 9 9 13 15 16 14 9 5 5 4 4 5 5 4 5 4 2
3 2 3 6 6 6 12 9 6 6 8 9 9 10 10 11 13 14 14 13 13 13 12 12 11 11 10 6 4 3 3 4 5 6 9 12 15 15 13 10 6 5 4 5 4 4 3 3 3
4 1 2 5 6 4 11 5 5 6 10 11 9 9 10 12 12 14 13 12 13 14 15 14 14 15 13 10 5 4 3 4 5 8 11 12 16 16 15 14 9 6 5 4 5 5 5 4 2
5 5 5 5 3 4 3 4 3 4 10 12 10 10 11 12 11 12 13 13 14 13 12 13 14 14 14 11 7 7 6 5 5 7 9 14 15 16 17 16 11 7 5 5 5 4 4 5 3
7 9 6 3 4 2 3 5 0 3 8 9 9 10 11 12 12 12 12 13 12 12 11 12 13 13 13 11 10 8 7 6 7 8 10 11 13 15 17 17 12 9 5 6 6 4 4 4 4
6 7 4 5 5 2 2 6 3 4 4 5 7 9 11 12 11 10 11 13 12 11 11 13 14 12 12 12 12 10 10 12 14 13 12 11 11 11 15 17 15 11 7 6 6 6 6 4 4
9 8 8 9 6 3 4 8 4 3 3 5 6 8 9 10 9 10 14 16 15 13 14 14 15 15 14 14 14 12 11 12 13 14 13 14 12 12 14 15 15 12 9 7 5 5 5 5 4
5 5 5 2 5 7 4 5 5 3 2 3 4 6 9 11 9 12 14 16 15 15 15 16 16 15 16 16 15 13 12 11 11 13 14 14 12 14 17 17 16 14 10 7 5 4 5 5 4
4 3 1 3 3 5 2 4 5 2 4 6 7 9 11 10 9 11 12 14 15 14 14 15 17 17 18 18 17 14 14 14 15 16 16 13 14 15 18 18 18 14 8 6 5 4 5 6 6
2 3 5 3 4 7 5 1 3 7 8 8 9 10 9 9 10 11 13 16 16 15 16 17 18 18 19 18 16 15 15 16 16 15 17 17 18 18 18 17 16 13 7 4 4 4 5 6 5
5 5 5 2 1 3 6 3 3 4 5 7 8 9 10 11 12 13 14 15 16 17 17 17 17 17 18 18 17 16 15 16 16 15 17 17 17 18 18 15 13 11 8 4 3 3 5 7 5
4 4 3 1 4 2 3 3 4 1 3 5 7 7 7 8 8 9 11 13 15 17 17 17 17 16 17 17 16 16 16 16 15 16 18 18 18 17 16 12 9 5 2 1 3 3 4 6 6
Wind_Direction
339 356 56 55 51 45 348 300 264 32 46 355 58 86 103 97 122 168 236 175 150 150 170 177 176 177 178 180 181 178 177 174 172 176 176 178 188 191 209 212 211 210 208 208 208 202 193 195 180
346 3 49 58 74 51 349 301 357 30 38 35 54 87 85 63 105 143 173 161 157 157 171 178 180 180 181 181 185 187 186 188 189 186 183 184 187 189 219 232 221 214 213 216 218 211 203 205 196
349 48 72 63 70 141 159 286 3 355 15 51 44 64 78 59 80 194 221 158 156 163 175 181 181 182 182 184 190 195 195 200 201 197 197 199 203 209 223 235 210 204 205 206 208 205 206 207 208
48 36 52 59 359 298 259 4 45 24 9 19 52 50 54 346 282 241 240 147 159 174 178 180 180 180 183 190 198 203 204 210 208 207 213 209 204 211 220 193 158 153 169 180 185 193 203 210 216
60 66 49 26 343 330 323 354 62 50 19 356 37 68 48 347 9 36 47 111 140 123 136 163 179 180 186 197 207 212 215 223 216 217 219 215 205 207 210 188 163 167 187 190 189 199 211 220 225
53 62 63 5 341 335 354 3 49 51 16 7 35 76 36 5 10 21 44 64 111 112 119 144 178 181 190 205 217 222 225 233 233 237 223 227 224 212 216 203 184 198 218 221 220 224 227 231 234
82 74 57 336 348 25 350 356 45 39 19 344 352 66 21 353 339 31 82 92 105 105 99 94 167 187 196 212 228 236 235 235 239 252 234 223 236 226 221 215 207 214 224 227 230 245 252 247 246
104 86 32 10 61 19 323 354 12 26 14 3 31 47 9 335 331 353 51 63 62 58 60 42 355 308 258 240 234 232 235 233 235 254 240 225 240 246 231 221 204 210 218 218 215 222 246 258 260
76 68 36 15 45 349 333 13 351 24 53 46 39 35 8 5 18 21 15 22 43 43 39 39 34 1 295 259 245 236 234 233 232 233 230 228 233 243 242 233 218 216 211 209 213 218 226 232 242
81 98 258 319 169 164 20 25 355 39 38 34 31 23 27 37 39 36 29 24 25 20 17 16 14 17 14 348 285 264 262 257 242 227 227 224 221 230 235 241 233 231 215 211 218 224 229 229 234
137 176 232 293 206 137 57 31 19 79 47 33 52 34 38 42 39 36 31 23 15 7 8 2 6 12 17 5 3 339 314 284 260 249 243 239 238 240 238 237 235 228 220 221 233 238 228 222 226
194 239 240 304 5 58 78 81 55 62 90 81 71 59 51 46 39 33 30 26 21 19 13 7 9 8 5 2 354 336 319 315 301 287 278 252 252 256 245 223 222 221 222 225 232 234 234 230 231
173 285 313 291 53 79 76 86 89 73 89 77 65 57 52 50 43 37 35 31 25 21 13 10 16 12 5 1 353 346 335 330 317 308 303 277 259 263 259 243 231 224 224 229 235 236 238 239 240
320 288 304 317 77 79 84 80 87 73 77 68 61 59 54 49 39 36 32 28 23 18 12 7 16 12 12 11 2 353 345 333 328 326 318 310 293 282 275 267 257 246 236 231 232 235 233 236 236
329 358 12 37 116 136 95 53 66 102 81 67 57 56 55 48 39 35 28 26 21 14 12 10 13 11 11 9 5 1 355 347 337 327 319 312 301 293 279 269 263 256 251 248 246 249 243 248 252
35 37 24 352 49 103 95 92 67 66 79 69 54 48 48 42 36 29 24 20 17 15 11 7 9 9 8 8 3 360 357 357 350 337 322 304 285 267 253 249 256 258 256 249 246 244 243 244 249
29 22 355 338 2 48 91 110 77 48 78 69 49 41 39 34 27 19 16 13 7 7 8 5 4 5 1 359 0 360 357 356 351 345 337 320 300 275 240 244 258 264 257 248 247 238 221 232 247
336 337 316 309 355 61 88 98 74 47 73 66 47 37 33 29 13 1 1 2 359 356 359 4 4 1 357 353 353 358 0 356 350 348 345 337 322 301 267 249 265 269 261 260 249 240 223 217 230
243 254 280 268 30 60 103 96 81 65 66 56 42 33 30 20 3 360 356 350 353 354 351 350 351 344 343 346 348 353 355 349 344 343 342 340 336 324 302 266 253 248 246 251 247 235 227 223 199
38 60 351 325 350 60 98 90 83 65 62 54 47 37 25 14 4 359 355 350 347 345 344 342 339 329 326 320 311 314 318 312 314 320 333 336 333 328 320 293 261 238 236 248 242 226 214 207 179
359 151 277 286 327 71 117 98 96 65 63 55 43 35 22 12 359 354 354 352 354 356 355 352 343 338 333 326 314 314 311 309 337 343 340 336 331 324 323 306 277 242 218 222 223 214 193 192 192
310 261 273 276 305 275 168 146 149 87 55 37 24 21 13 359 353 352 358 1 3 359 357 352 345 343 341 340 334 337 345 338 332 330 327 327 326 324 322 318 295 260 223 212 217 204 188 170 176
278 287 286 255 192 298 8 100 96 45 41 17 9 13 6 354 351 355 2 358 352 346 349 346 340 338 338 340 339 340 342 332 328 328 323 321 320 319 318 316 308 283 249 216 205 189 174 169 168
311 342 23 65 83 52 33 115 50 26 33 7 10 9 356 346 348 358 0 354 347 345 346 343 341 339 342 348 354 352 344 337 333 331 324 321 316 312 310 314 311 298 274 232 201 187 172 167 164
17 31 20 7 7 277 59 93 116 102 72 40 23 1 345 338 348 2 359 353 346 347 347 346 346 348 356 360 356 344 339 336 331 329 325 321 315 311 309 309 305 294 275 254 207 172 157 153 159
360 66 88 306 278 296 21 117 157 155 85 43 24 352 349 351 1 2 356 351 343 343 346 347 348 351 353 351 347 341 343 338 331 329 324 317 311 306 305 305 299 287 264 239 212 160 142 128 123
15 58 159 178 287 281 272 130 184 76 29 17 3 354 353 349 355 352 351 349 342 339 345 348 350 353 350 349 344 340 341 336 332 329 323 317 311 305 300 299 295 287 261 212 187 153 140 124 111
75 112 57 46 314 298 300 106 330 350 353 351 346 342 341 344 346 349 354 350 344 346 352 353 358 356 348 344 341 339 337 335 331 325 320 315 310 305 299 292 288 278 257 197 154 134 120 108 110
8 44 50 35 209 256 292 312 57 33 354 332 328 337 341 344 347 351 352 348 350 355 354 352 355 353 346 342 340 339 338 333 327 325 324 319 313 309 302 296 290 270 249 215 156 142 127 114 106
68 78 86 31 298 254 251 254 83 65 300 309 327 338 336 337 336 342 348 349 352 352 350 350 351 350 344 339 339 340 338 332 330 335 335 332 326 319 312 310 316 304 263 146 126 129 111 107 100